Location: Contre
(49.7477°N, 2.0963°E)
Time: 20:15:45
(UTC+00:00)

Meteor 2-12 Rocket - Pass Details

Date: 07 August 2024
Orbit: 936 x 957 km, 82.5° (Epoch: 07 September)

Event Time Altitude Azimuth Distance (km) Brightness Sun altitude
Rises 01:28:59 0° 347° (NNW) 3,610 8.3 -20.9°
Reaches altitude 10° 01:31:30 10° 344° (NNW) 2,663 7.5 -20.7°
Maximum altitude 01:37:27 59° 266° (W) 1,081 4.5 -20.3°
Enters shadow 01:39:45 37° 205° (SSW) 1,432 4.8 -20.2°
